This is the latest recevied weather packets stored in our database for station/object HS5BOG-13. If no packets are shown the sender has not sent any weather packets the latest 10 day(s).
| Time | Temp. | Humidity | Pressure | Rain* | Wind** | Luminosity | Snow |
|---|---|---|---|---|---|---|---|
| 1777953821 | 28.33° C | 93% | 996 hPa | - | - | - | - |
| 1777953216 | 27.78° C | 96% | 996.2 hPa | - | - | - | - |
| 1777952610 | 27.78° C | 96% | 996.2 hPa | - | - | - | - |
| 1777952004 | 27.78° C | 96% | 996.2 hPa | - | - | - | - |
| 1777951399 | 27.78° C | 96% | 996.3 hPa | - | - | - | - |
| 1777950793 | 27.78° C | 95% | 996.3 hPa | - | - | - | - |
| 1777950188 | 27.78° C | 95% | 996.5 hPa | - | - | - | - |
| 1777949582 | 27.78° C | 95% | 996.8 hPa | - | - | - | - |
| 1777948977 | 27.78° C | 95% | 996.7 hPa | - | - | - | - |
| 1777948371 | 27.78° C | 93% | 996.8 hPa | - | - | - | - |
| 1777947765 | 27.78° C | 93% | 996.8 hPa | - | - | - | - |
| 1777947160 | 27.78° C | 92% | 996.8 hPa | - | - | - | - |
| 1777946554 | 27.78° C | 92% | 996.8 hPa | - | - | - | - |
| 1777945949 | 27.78° C | 94% | 996.8 hPa | - | - | - | - |
| 1777945343 | 27.78° C | 95% | 996.7 hPa | - | - | - | - |
| 1777944737 | 27.22° C | 95% | 996.6 hPa | - | - | - | - |
| 1777944132 | 27.22° C | 95% | 996.5 hPa | - | - | - | - |
| 1777943526 | 27.22° C | 94% | 996.3 hPa | - | - | - | - |
| 1777942921 | 27.22° C | 95% | 996.2 hPa | - | - | - | - |
| 1777942315 | 27.22° C | 94% | 995.9 hPa | - | - | - | - |
| 1777941710 | 27.22° C | 95% | 995.9 hPa | - | - | - | - |
| 1777941104 | 27.22° C | 97% | 995.6 hPa | - | - | - | - |
| 1777940498 | 27.22° C | 99% | 995.4 hPa | - | - | - | - |
| 1777939893 | 26.67° C | 98% | 995.3 hPa | - | - | - | - |
| 1777939287 | 26.67° C | 98% | 995.2 hPa | - | - | - | - |
* Rain since midnight (hover to see other rain measurements)
** Current wind speed in m/s (hover to see current wind gust speed)